Location: Unspecified
(51.0459°N, 0.0000°E)
Time: 11:32:22
(UTC+00:00)

ISS - Pass Details

Date: 31 May 2019
Orbit: 408 x 418 km, 51.6° (Epoch: 16 June)

Event Time Altitude Azimuth Distance (km) Brightness Sun altitude
Rises 21:14:56 0° 285° (WNW) 2,357 1.0 -8.7°
Reaches altitude 10° 21:17:08 10° 276° (W) 1,493 -0.3 -8.9°
Maximum altitude 21:20:12 34° 209° (SSW) 706 -2.8 -9.2°
Enters shadow 21:22:41 14° 148° (SSE) 1,277 -2.0 -9.4°
